| time (UTC) | temp F | wind direction | speed MPH | gust MPH | rain 1hr in | rain 24hr in | rain mn in | humidity % | barometer mb |
| 20260509200004 | 64 | 274 | 2.0 | 3.0 | 0.00 | 0.00 | 0.04 | 56 | 1011.4 |
| 20260509195004 | 64 | 336 | 0.0 | 2.0 | 0.00 | 0.00 | 0.04 | 56 | 1011.3 |
| 20260509194005 | 64 | 328 | 0.0 | 2.0 | 0.00 | 0.00 | 0.04 | 56 | 1011.3 |
| 20260509193004 | 64 | 350 | 0.0 | 2.0 | 0.00 | 0.00 | 0.04 | 58 | 1011.3 |
| 20260509191004 | 63 | 9 | 1.0 | 2.0 | 0.00 | 0.00 | 0.04 | 59 | 1011.7 |
| 20260509190005 | 63 | 15 | 0.0 | 2.0 | 0.00 | 0.00 | 0.04 | 58 | 1011.9 |
| 20260509185005 | 63 | 26 | 0.0 | 4.0 | 0.00 | 0.00 | 0.04 | 59 | 1012.0 |
| 20260509183004 | 63 | 296 | 1.0 | 3.0 | 0.00 | 0.00 | 0.04 | 58 | 1012.2 |
| 20260509181005 | 63 | 284 | 1.0 | 2.0 | 0.00 | 0.00 | 0.04 | 59 | 1012.3 |
| 20260509180005 | 63 | 267 | 0.0 | 5.0 | 0.00 | 0.00 | 0.04 | 59 | 1012.4 |
| 20260509175004 | 63 | 261 | 0.0 | 2.0 | 0.00 | 0.00 | 0.04 | 59 | 1012.4 |
| 20260509174004 | 63 | 273 | 4.0 | 5.0 | 0.00 | 0.00 | 0.04 | 58 | 1012.5 |
| 20260509173004 | 64 | 269 | 0.0 | 4.0 | 0.00 | 0.00 | 0.04 | 58 | 1012.4 |
| 20260509172005 | 64 | 284 | 3.0 | 5.0 | 0.00 | 0.00 | 0.04 | 60 | 1012.4 |
| 20260509171004 | 63 | 276 | 0.0 | 5.0 | 0.00 | 0.00 | 0.04 | 61 | 1012.3 |
| 20260509165004 | 62 | 246 | 0.0 | 2.0 | 0.00 | 0.00 | 0.04 | 62 | 1012.4 |
| 20260509164004 | 62 | 246 | 0.0 | 4.0 | 0.00 | 0.00 | 0.04 | 64 | 1012.5 |
| 20260509163005 | 62 | 283 | 1.0 | 5.0 | 0.00 | 0.00 | 0.04 | 66 | 1012.5 |
| 20260509162004 | 62 | 271 | 2.0 | 5.0 | 0.00 | 0.00 | 0.04 | 66 | 1012.5 |
| 20260509161005 | 62 | 244 | 0.0 | 2.0 | 0.00 | 0.00 | 0.04 | 66 | 1012.5 |
| 20260509160005 | 62 | 238 | 0.0 | 1.0 | 0.00 | 0.00 | 0.03 | 64 | 1012.7 |
| 20260509155004 | 63 | 238 | 0.0 | 1.0 | 0.00 | 0.00 | 0.03 | 62 | 1013.0 |
| 20260509154004 | 64 | 240 | 2.0 | 3.0 | 0.00 | 0.00 | 0.03 | 61 | 1013.3 |
| 20260509153004 | 64 | 90 | 4.0 | 4.0 | 0.00 | 0.00 | 0.02 | 59 | 1013.3 |
| 20260509152005 | 65 | 260 | 2.0 | 2.0 | 0.00 | 0.00 | 0.01 | 58 | 1013.4 |
| 20260509145005 | 65 | 141 | 0.0 | 5.0 | 0.00 | 0.00 | 0.00 | 53 | 1013.3 |
| 20260509144005 | 65 | 246 | 1.0 | 5.0 | 0.00 | 0.00 | 0.00 | 51 | 1013.3 |
| 20260509143004 | 64 | 130 | 0.0 | 7.0 | 0.00 | 0.00 | 0.00 | 52 | 1013.2 |
| 20260509142004 | 64 | 98 | 2.0 | 8.0 | 0.00 | 0.00 | 0.00 | 53 | 1013.2 |
| 20260509141004 | 63 | 80 | 1.0 | 8.0 | 0.00 | 0.00 | 0.00 | 55 | 1013.2 |
| 20260509140005 | 63 | 310 | 3.0 | 9.0 | 0.00 | 0.00 | 0.00 | 55 | 1013.2 |
| 20260509135005 | 62 | 312 | 4.0 | 9.0 | 0.00 | 0.00 | 0.00 | 57 | 1013.2 |
| 20260509134004 | 62 | 301 | 2.0 | 5.0 | 0.00 | 0.00 | 0.00 | 58 | 1013.1 |
| 20260509133004 | 61 | 34 | 3.0 | 7.0 | 0.00 | 0.00 | 0.00 | 59 | 1013.1 |
| 20260509132004 | 61 | 140 | 0.0 | 5.0 | 0.00 | 0.00 | 0.00 | 59 | 1013.1 |
| 20260509131005 | 60 | 12 | 1.0 | 5.0 | 0.00 | 0.00 | 0.00 | 60 | 1013.2 |
| 20260509130004 | 60 | 42 | 1.0 | 7.0 | 0.00 | 0.00 | 0.00 | 62 | 1013.2 |
| 20260509123005 | 58 | 99 | 2.0 | 7.0 | 0.00 | 0.00 | 0.00 | 64 | 1013.3 |
| 20260509122004 | 58 | 123 | 0.0 | 4.0 | 0.00 | 0.00 | 0.00 | 65 | 1013.4 |
| 20260509121005 | 57 | 128 | 0.0 | 2.0 | 0.00 | 0.00 | 0.00 | 65 | 1013.3 |
| 20260509120004 | 57 | 126 | 1.0 | 2.0 | 0.00 | 0.00 | 0.00 | 66 | 1013.3 |
| 20260509115004 | 57 | 126 | 0.0 | 2.0 | 0.00 | 0.00 | 0.00 | 66 | 1013.3 |
| 20260509114004 | 56 | 126 | 0.0 | 0.0 | 0.00 | 0.00 | 0.00 | 66 | 1013.2 |
| 20260509113004 | 56 | 130 | 1.0 | 2.0 | 0.00 | 0.00 | 0.00 | 66 | 1013.2 |
| 20260509112005 | 56 | 131 | 1.0 | 5.0 | 0.00 | 0.00 | 0.00 | 66 | 1013.1 |
| 20260509111004 | 56 | 25 | 1.0 | 3.0 | 0.00 | 0.00 | 0.00 | 66 | 1013.2 |
| 20260509110005 | 56 | 230 | 0.0 | 4.0 | 0.00 | 0.00 | 0.00 | 66 | 1013.2 |
| 20260509105004 | 56 | 93 | 0.0 | 5.0 | 0.00 | 0.00 | 0.00 | 66 | 1013.2 |
| 20260509103004 | 55 | 105 | 0.0 | 4.0 | 0.00 | 0.00 | 0.00 | 65 | 1012.9 |
| 20260509101004 | 55 | 90 | 1.0 | 2.0 | 0.00 | 0.00 | 0.00 | 65 | 1012.7 |
| 20260509095004 | 55 | 90 | 1.0 | 2.0 | 0.00 | 0.00 | 0.00 | 65 | 1012.7 |
| 20260509094004 | 55 | 90 | 1.0 | 5.0 | 0.00 | 0.00 | 0.00 | 65 | 1012.8 |
| 20260509093004 | 55 | 103 | 0.0 | 2.0 | 0.00 | 0.00 | 0.00 | 65 | 1012.8 |
| 20260509092004 | 55 | 103 | 2.0 | 4.0 | 0.00 | 0.00 | 0.00 | 64 | 1012.7 |
| 20260509091005 | 55 | 98 | 1.0 | 4.0 | 0.00 | 0.00 | 0.00 | 64 | 1012.8 |
| 20260509090005 | 55 | 98 | 0.0 | 4.0 | 0.00 | 0.00 | 0.00 | 64 | 1012.8 |
| 20260509083005 | 54 | 111 | 0.0 | 2.0 | 0.00 | 0.00 | 0.00 | 64 | 1013.2 |
| 20260509082004 | 54 | 111 | 3.0 | 4.0 | 0.00 | 0.00 | 0.00 | 64 | 1013.2 |
| 20260509081004 | 54 | 98 | 0.0 | 1.0 | 0.00 | 0.00 | 0.00 | 64 | 1013.1 |
| 20260509080004 | 53 | 90 | 0.0 | 1.0 | 0.00 | 0.00 | 0.00 | 65 | 1013.2 |
| 20260509074004 | 53 | 66 | 0.0 | 0.0 | 0.00 | 0.00 | 0.00 | 64 | 1013.4 |
| 20260509073005 | 53 | 66 | 0.0 | 0.0 | 0.00 | 0.00 | 0.00 | 63 | 1013.4 |
| 20260509072004 | 52 | 66 | 0.0 | 0.0 | 0.00 | 0.00 | 0.00 | 61 | 1013.4 |
| 20260509070004 | 53 | 66 | 0.0 | 0.0 | 0.00 | 0.00 | 0.00 | 59 | 1013.6 |
| 20260509065005 | 53 | 66 | 0.0 | 0.0 | 0.00 | 0.00 | 0.00 | 59 | 1013.6 |
| 20260509064004 | 53 | 66 | 0.0 | 0.0 | 0.00 | 0.00 | 0.00 | 58 | 1013.7 |
| 20260509063005 | 54 | 66 | 0.0 | 0.0 | 0.00 | 0.00 | 0.00 | 57 | 1013.8 |
| 20260509061004 | 54 | 66 | 0.0 | 0.0 | 0.00 | 0.00 | 0.00 | 55 | 1014.0 |
| 20260509060005 | 54 | 66 | 0.0 | 0.0 | 0.00 | 0.00 | 0.00 | 55 | 1014.1 |
| 20260509055004 | 55 | 66 | 0.0 | 0.0 | 0.00 | 0.00 | 0.00 | 54 | 1014.1 |
| 20260509054004 | 56 | 66 | 0.0 | 0.0 | 0.00 | 0.00 | 0.00 | 53 | 1014.2 |
| 20260509053004 | 56 | 66 | 0.0 | 1.0 | 0.00 | 0.00 | 0.00 | 52 | 1014.2 |
| 20260509052004 | 57 | 66 | 0.0 | 1.0 | 0.00 | 0.00 | 0.00 | 52 | 1014.3 |
| 20260509051004 | 57 | 66 | 0.0 | 0.0 | 0.00 | 0.00 | 0.00 | 51 | 1014.5 |
| 20260509050005 | 58 | 66 | 0.0 | 0.0 | 0.00 | 0.00 | 0.00 | 49 | 1014.6 |
| 20260509045004 | 58 | 66 | 0.0 | 0.0 | 0.00 | 0.00 | 0.00 | 49 | 1014.6 |
| 20260509044005 | 58 | 66 | 0.0 | 1.0 | 0.00 | 0.00 | 0.00 | 48 | 1014.6 |
| 20260509043004 | 59 | 66 | 0.0 | 4.0 | 0.00 | 0.00 | 0.00 | 48 | 1014.6 |
| 20260509042005 | 59 | 113 | 1.0 | 4.0 | 0.00 | 0.00 | 0.00 | 48 | 1014.5 |
| 20260509040005 | 60 | 121 | 0.0 | 0.0 | 0.00 | 0.00 | 0.00 | 46 | 1014.5 |
| 20260509035004 | 60 | 121 | 0.0 | 0.0 | 0.00 | 0.00 | 0.00 | 45 | 1014.6 |
| 20260509034005 | 60 | 121 | 0.0 | 0.0 | 0.00 | 0.00 | 0.00 | 45 | 1014.6 |
| 20260509033005 | 60 | 121 | 0.0 | 0.0 | 0.00 | 0.00 | 0.00 | 46 | 1014.6 |
| 20260509032004 | 60 | 138 | 0.0 | 0.0 | 0.00 | 0.00 | 0.00 | 44 | 1014.6 |
| 20260509030005 | 61 | 138 | 0.0 | 0.0 | 0.00 | 0.00 | 0.00 | 45 | 1014.5 |
| 20260509025004 | 61 | 138 | 0.0 | 0.0 | 0.00 | 0.00 | 0.00 | 45 | 1014.5 |
| 20260509024005 | 61 | 138 | 0.0 | 0.0 | 0.00 | 0.00 | 0.00 | 45 | 1014.5 |
| 20260509022004 | 62 | 138 | 0.0 | 0.0 | 0.00 | 0.00 | 0.00 | 45 | 1014.5 |
| 20260509021004 | 62 | 138 | 0.0 | 0.0 | 0.00 | 0.00 | 0.00 | 45 | 1014.6 |
| 20260509020004 | 62 | 256 | 0.0 | 1.0 | 0.00 | 0.00 | 0.00 | 44 | 1014.5 |
| 20260509015006 | 63 | 256 | 0.0 | 1.0 | 0.00 | 0.00 | 0.00 | 44 | 1014.6 |
| 20260509014004 | 63 | 256 | 1.0 | 1.0 | 0.00 | 0.00 | 0.00 | 43 | 1014.6 |
| 20260509013004 | 63 | 257 | 0.0 | 1.0 | 0.00 | 0.00 | 0.00 | 43 | 1014.5 |
| 20260509012004 | 63 | 257 | 0.0 | 2.0 | 0.00 | 0.00 | 0.00 | 41 | 1014.4 |
| 20260509011004 | 64 | 286 | 0.0 | 1.0 | 0.00 | 0.00 | 0.00 | 41 | 1014.0 |
| 20260509010004 | 64 | 286 | 0.0 | 1.0 | 0.00 | 0.00 | 0.00 | 39 | 1013.9 |
| 20260509005004 | 64 | 286 | 0.0 | 2.0 | 0.00 | 0.00 | 0.00 | 40 | 1013.7 |
| 20260509004005 | 64 | 286 | 1.0 | 4.0 | 0.00 | 0.00 | 0.00 | 39 | 1013.5 |
| 20260509003004 | 64 | 89 | 0.0 | 0.0 | 0.00 | 0.00 | 0.00 | 39 | 1013.4 |
| 20260509002004 | 65 | 88 | 0.0 | 0.0 | 0.00 | 0.00 | 0.00 | 38 | 1013.3 |
| 20260509000004 | 65 | 83 | 0.0 | 0.0 | 0.00 | 0.00 | 0.00 | 36 | 1013.1 |
| 20260508235004 | 65 | 84 | 0.0 | 0.0 | 0.00 | 0.00 | 0.00 | 35 | 1013.1 |
| 20260508234004 | 66 | 84 | 0.0 | 0.0 | 0.00 | 0.00 | 0.00 | 34 | 1013.0 |
| 20260508233005 | 66 | 334 | 0.0 | 2.0 | 0.00 | 0.00 | 0.00 | 35 | 1013.0 |
| 20260508232005 | 66 | 306 | 0.0 | 2.0 | 0.00 | 0.00 | 0.00 | 32 | 1012.9 |
| 20260508231004 | 66 | 306 | 1.0 | 2.0 | 0.00 | 0.00 | 0.00 | 32 | 1012.8 |
| 20260508230004 | 67 | 81 | 1.0 | 4.0 | 0.00 | 0.00 | 0.00 | 32 | 1012.7 |
| 20260508225004 | 67 | 53 | 1.0 | 2.0 | 0.00 | 0.00 | 0.00 | 32 | 1012.5 |
| 20260508224004 | 67 | 252 | 2.0 | 3.0 | 0.00 | 0.00 | 0.00 | 31 | 1012.6 |
| 20260508223004 | 67 | 81 | 2.0 | 6.0 | 0.00 | 0.00 | 0.00 | 30 | 1012.7 |
| 20260508222006 | 68 | 43 | 0.0 | 6.0 | 0.00 | 0.00 | 0.00 | 28 | 1012.7 |
| 20260508221004 | 68 | 261 | 2.0 | 7.0 | 0.00 | 0.00 | 0.00 | 27 | 1012.5 |
| 20260508220004 | 68 | 331 | 2.0 | 8.0 | 0.00 | 0.00 | 0.00 | 25 | 1012.5 |
| 20260508215004 | 68 | 103 | 0.0 | 7.0 | 0.00 | 0.00 | 0.00 | 25 | 1012.5 |
| 20260508214004 | 69 | 261 | 0.0 | 6.0 | 0.00 | 0.00 | 0.00 | 26 | 1012.5 |
| 20260508212005 | 70 | 302 | 1.0 | 7.0 | 0.00 | 0.00 | 0.00 | 24 | 1012.5 |
| 20260508211004 | 71 | 69 | 2.0 | 7.0 | 0.00 | 0.00 | 0.00 | 21 | 1012.5 |
| 20260508210005 | 71 | 229 | 0.0 | 13.0 | 0.00 | 0.00 | 0.00 | 22 | 1012.3 |
| 20260508205004 | 71 | 86 | 3.0 | 7.0 | 0.00 | 0.00 | 0.00 | 22 | 1012.5 |
| 20260508204004 | 72 | 58 | 3.0 | 8.0 | 0.00 | 0.00 | 0.00 | 20 | 1012.4 |
| 20260508203007 | 71 | 102 | 0.0 | 13.0 | 0.00 | 0.00 | 0.00 | 21 | 1012.5 |
| 20260508202004 | 71 | 240 | 9.0 | 9.0 | 0.00 | 0.00 | 0.00 | 21 | 1012.8 |
| 20260508201005 | 71 | 223 | 4.0 | 12.0 | 0.00 | 0.00 | 0.00 | 22 | 1012.7 |